| time (UTC) | temp F | wind direction | speed MPH | gust MPH | rain 1hr in | rain 24hr in | rain mn in | humidity % | barometer mb |
| 20260510004558 | 49 | 124 | 2.0 | 9.0 | 0.00 | 0.05 | 0.03 | 100 | 1012.4 |
| 20260510003101 | 50 | 100 | 2.0 | 7.0 | 0.00 | 0.05 | 0.03 | 100 | 1012.6 |
| 20260510001556 | 50 | 90 | 2.0 | 4.0 | 0.00 | 0.05 | 0.03 | 100 | 1013.0 |
| 20260510000058 | 50 | 70 | 1.0 | 4.0 | 0.01 | 0.05 | 0.03 | 100 | 1013.1 |
| 20260509234608 | 50 | 81 | 2.0 | 9.0 | 0.00 | 0.04 | 0.02 | 100 | 1013.3 |
| 20260509233053 | 50 | 125 | 0.0 | 3.0 | 0.01 | 0.04 | 0.02 | 100 | 1013.6 |
| 20260509231556 | 51 | 111 | 1.0 | 4.0 | 0.01 | 0.04 | 0.02 | 100 | 1013.7 |
| 20260509224553 | 51 | 68 | 1.0 | 5.0 | 0.03 | 0.03 | 0.01 | 100 | 1013.8 |
| 20260509223059 | 51 | 102 | 1.0 | 4.0 | 0.03 | 0.03 | 0.00 | 100 | 1013.8 |
| 20260509221555 | 51 | 180 | 1.0 | 10.0 | 0.03 | 0.03 | 0.00 | 100 | 1013.9 |
| 20260509220104 | 51 | 160 | 2.0 | 8.0 | 0.02 | 0.02 | 0.00 | 100 | 1013.8 |
| 20260509214558 | 51 | 128 | 2.0 | 12.0 | 0.00 | 0.00 | 0.00 | 100 | 1013.8 |
| 20260509213104 | 51 | 0 | 2.0 | 10.0 | 0.00 | 0.00 | 0.00 | 100 | 1013.7 |
| 20260509211604 | 51 | 87 | 2.0 | 7.0 | 0.00 | 0.00 | 0.00 | 100 | 1013.6 |
| 20260509210101 | 52 | 0 | 2.0 | 9.0 | 0.00 | 0.00 | 0.00 | 99 | 1013.6 |
| 20260509204600 | 52 | 130 | 2.0 | 8.0 | 0.00 | 0.00 | 0.00 | 96 | 1013.6 |
| 20260509203101 | 52 | 244 | 3.0 | 10.0 | 0.00 | 0.00 | 0.00 | 93 | 1013.4 |
| 20260509201556 | 52 | 163 | 3.0 | 13.0 | 0.00 | 0.00 | 0.00 | 89 | 1013.2 |
| 20260509200057 | 52 | 18 | 4.0 | 9.0 | 0.00 | 0.00 | 0.00 | 88 | 1013.1 |
| 20260509194559 | 52 | 107 | 4.0 | 11.0 | 0.00 | 0.00 | 0.00 | 87 | 1012.7 |
| 20260509193058 | 52 | 0 | 3.0 | 13.0 | 0.00 | 0.00 | 0.00 | 87 | 1012.5 |
| 20260509191609 | 53 | 163 | 5.0 | 11.0 | 0.00 | 0.00 | 0.00 | 88 | 1012.3 |
| 20260509190100 | 53 | 44 | 6.0 | 12.0 | 0.00 | 0.00 | 0.00 | 88 | 1012.2 |
| 20260509184558 | 53 | 182 | 4.0 | 14.0 | 0.00 | 0.00 | 0.00 | 88 | 1012.7 |
| 20260509183057 | 53 | 207 | 7.0 | 18.0 | 0.00 | 0.00 | 0.00 | 88 | 1012.7 |
| 20260509181605 | 54 | 131 | 7.0 | 16.0 | 0.00 | 0.00 | 0.00 | 89 | 1012.2 |
| 20260509180101 | 54 | 191 | 6.0 | 17.0 | 0.00 | 0.00 | 0.00 | 89 | 1012.4 |
| 20260509174604 | 54 | 156 | 3.0 | 13.0 | 0.00 | 0.00 | 0.00 | 88 | 1012.6 |
| 20260509173112 | 54 | 167 | 3.0 | 7.0 | 0.00 | 0.00 | 0.00 | 87 | 1012.2 |
| 20260509171601 | 54 | 118 | 3.0 | 11.0 | 0.00 | 0.00 | 0.00 | 87 | 1011.9 |
| 20260509170100 | 55 | 154 | 4.0 | 9.0 | 0.00 | 0.00 | 0.00 | 87 | 1011.9 |
| 20260509164554 | 55 | 159 | 4.0 | 11.0 | 0.00 | 0.00 | 0.00 | 88 | 1011.8 |
| 20260509163108 | 55 | 228 | 4.0 | 20.0 | 0.00 | 0.00 | 0.00 | 89 | 1011.7 |
| 20260509161606 | 55 | 163 | 5.0 | 20.0 | 0.00 | 0.00 | 0.00 | 90 | 1011.8 |
| 20260509154602 | 56 | 98 | 3.0 | 19.0 | 0.00 | 0.00 | 0.00 | 93 | 1012.2 |
| 20260509153054 | 55 | 90 | 5.0 | 17.0 | 0.00 | 0.00 | 0.00 | 93 | 1012.1 |
| 20260509151555 | 56 | 161 | 4.0 | 18.0 | 0.00 | 0.00 | 0.00 | 93 | 1012.5 |
| 20260509150053 | 56 | 157 | 7.0 | 19.0 | 0.00 | 0.00 | 0.00 | 94 | 1012.8 |
| 20260509144610 | 56 | 162 | 3.0 | 17.0 | 0.00 | 0.00 | 0.00 | 95 | 1013.0 |
| 20260509143055 | 56 | 175 | 8.0 | 20.0 | 0.00 | 0.00 | 0.00 | 94 | 1013.0 |
| 20260509141600 | 56 | 134 | 6.0 | 23.0 | 0.00 | 0.00 | 0.00 | 95 | 1013.0 |
| 20260509140113 | 57 | 161 | 8.0 | 18.0 | 0.00 | 0.00 | 0.00 | 94 | 1013.2 |
| 20260509134557 | 57 | 131 | 8.0 | 20.0 | 0.00 | 0.00 | 0.00 | 93 | 1013.4 |
| 20260509133103 | 58 | 138 | 7.0 | 24.0 | 0.00 | 0.00 | 0.00 | 93 | 1013.5 |
| 20260509131559 | 59 | 92 | 7.0 | 15.0 | 0.00 | 0.00 | 0.00 | 92 | 1013.9 |
| 20260509130107 | 59 | 134 | 7.0 | 19.0 | 0.00 | 0.00 | 0.00 | 91 | 1014.0 |
| 20260509124609 | 59 | 341 | 5.0 | 26.0 | 0.00 | 0.00 | 0.00 | 93 | 1013.8 |
| 20260509123059 | 60 | 49 | 7.0 | 20.0 | 0.00 | 0.00 | 0.00 | 94 | 1013.7 |
| 20260509121617 | 59 | 42 | 10.0 | 20.0 | 0.00 | 0.00 | 0.00 | 96 | 1013.7 |
| 20260509120057 | 59 | 312 | 4.0 | 22.0 | 0.00 | 0.00 | 0.00 | 99 | 1013.8 |
| 20260509114602 | 60 | 146 | 6.0 | 16.0 | 0.00 | 0.00 | 0.00 | 98 | 1014.2 |
| 20260509113058 | 60 | 138 | 5.0 | 17.0 | 0.00 | 0.00 | 0.00 | 98 | 1014.1 |
| 20260509111604 | 59 | 278 | 7.0 | 14.0 | 0.00 | 0.00 | 0.00 | 99 | 1014.6 |
| 20260509110056 | 58 | 92 | 9.0 | 20.0 | 0.00 | 0.00 | 0.00 | 99 | 1014.3 |
| 20260509104556 | 58 | 102 | 8.0 | 18.0 | 0.00 | 0.00 | 0.00 | 98 | 1014.6 |
| 20260509103055 | 59 | 81 | 7.0 | 18.0 | 0.00 | 0.00 | 0.00 | 99 | 1014.4 |
| 20260509101555 | 58 | 43 | 8.0 | 24.0 | 0.00 | 0.00 | 0.00 | 99 | 1014.2 |
| 20260509100055 | 56 | 44 | 3.0 | 17.0 | 0.00 | 0.00 | 0.00 | 100 | 1014.3 |
| 20260509094557 | 55 | 249 | 4.0 | 14.0 | 0.00 | 0.00 | 0.00 | 100 | 1014.6 |
| 20260509093057 | 55 | 141 | 5.0 | 18.0 | 0.00 | 0.00 | 0.00 | 100 | 1014.3 |
| 20260509091558 | 55 | 148 | 6.0 | 18.0 | 0.00 | 0.00 | 0.00 | 100 | 1014.1 |
| 20260509090106 | 55 | 107 | 6.0 | 15.0 | 0.00 | 0.00 | 0.00 | 100 | 1014.5 |
| 20260509084600 | 54 | 78 | 7.0 | 13.0 | 0.00 | 0.00 | 0.00 | 100 | 1014.4 |
| 20260509083102 | 54 | 112 | 4.0 | 17.0 | 0.00 | 0.00 | 0.00 | 100 | 1014.4 |
| 20260509081557 | 55 | 147 | 5.0 | 12.0 | 0.00 | 0.00 | 0.00 | 100 | 1014.6 |
| 20260509080100 | 54 | 103 | 6.0 | 17.0 | 0.00 | 0.00 | 0.00 | 100 | 1014.7 |
| 20260509074601 | 54 | 123 | 5.0 | 14.0 | 0.00 | 0.00 | 0.00 | 100 | 1015.0 |
| 20260509073056 | 54 | 98 | 5.0 | 16.0 | 0.00 | 0.00 | 0.00 | 100 | 1015.2 |
| 20260509071555 | 54 | 111 | 5.0 | 16.0 | 0.00 | 0.00 | 0.00 | 100 | 1015.0 |
| 20260509070058 | 53 | 187 | 6.0 | 14.0 | 0.00 | 0.00 | 0.00 | 100 | 1015.3 |
| 20260509064556 | 53 | 129 | 6.0 | 17.0 | 0.00 | 0.00 | 0.00 | 100 | 1015.1 |
| 20260509063103 | 53 | 107 | 4.0 | 11.0 | 0.00 | 0.00 | 0.00 | 100 | 1015.1 |
| 20260509061600 | 53 | 84 | 6.0 | 18.0 | 0.00 | 0.00 | 0.00 | 100 | 1015.0 |
| 20260509060104 | 53 | 127 | 4.0 | 18.0 | 0.00 | 0.00 | 0.00 | 100 | 1014.7 |
| 20260509054606 | 53 | 175 | 4.0 | 16.0 | 0.00 | 0.00 | 0.00 | 100 | 1014.7 |
| 20260509053134 | 52 | 67 | 3.0 | 11.0 | 0.00 | 0.00 | 0.00 | 100 | 1014.6 |
| 20260509051611 | 52 | 92 | 3.0 | 15.0 | 0.00 | 0.00 | 0.00 | 100 | 1014.6 |
| 20260509050056 | 52 | 165 | 4.0 | 12.0 | 0.00 | 0.00 | 0.00 | 100 | 1014.5 |
| 20260509044555 | 52 | 169 | 3.0 | 12.0 | 0.00 | 0.00 | 0.00 | 100 | 1014.6 |
| 20260509043105 | 51 | 161 | 3.0 | 9.0 | 0.00 | 0.00 | 0.00 | 100 | 1014.3 |
| 20260509041603 | 51 | 0 | 2.0 | 9.0 | 0.00 | 0.00 | 0.00 | 100 | 1014.5 |
| 20260509040114 | 51 | 141 | 2.0 | 12.0 | 0.00 | 0.00 | 0.00 | 100 | 1014.6 |
| 20260509034605 | 51 | 164 | 1.0 | 13.0 | 0.00 | 0.00 | 0.00 | 100 | 1014.8 |
| 20260509033056 | 51 | 175 | 4.0 | 9.0 | 0.00 | 0.00 | 0.00 | 100 | 1014.8 |
| 20260509031606 | 51 | 61 | 4.0 | 11.0 | 0.00 | 0.00 | 0.00 | 100 | 1014.8 |
| 20260509030055 | 51 | 142 | 4.0 | 15.0 | 0.00 | 0.00 | 0.00 | 100 | 1014.7 |
| 20260509024555 | 51 | 155 | 3.0 | 13.0 | 0.00 | 0.00 | 0.00 | 100 | 1014.8 |
| 20260509023054 | 51 | 123 | 2.0 | 13.0 | 0.00 | 0.00 | 0.00 | 100 | 1014.9 |
| 20260509021555 | 51 | 90 | 4.0 | 12.0 | 0.00 | 0.00 | 0.00 | 100 | 1014.6 |
| 20260509020056 | 51 | 80 | 4.0 | 13.0 | 0.00 | 0.00 | 0.00 | 100 | 1014.9 |
| 20260509014600 | 51 | 211 | 2.0 | 12.0 | 0.00 | 0.00 | 0.00 | 100 | 1015.1 |
| 20260509013107 | 51 | 205 | 5.0 | 15.0 | 0.00 | 0.00 | 0.00 | 100 | 1014.9 |
| 20260509011559 | 51 | 162 | 2.0 | 14.0 | 0.00 | 0.00 | 0.00 | 100 | 1015.0 |
| 20260509010058 | 51 | 76 | 5.0 | 13.0 | 0.00 | 0.00 | 0.00 | 100 | 1014.7 |